Home > Weather > Dundalk > Past weeks

Flag for Ireland Past Weather in Dundalk, Ireland — Yesterday and Last 2 Weeks

Now
60 °F

Cool.


Feels Like: 61 °F
Forecast: 53 / 66 °F
Wind: 3 mph from Southeast

Location: Glenanne

Current Time: Aug 27, 2016 at 11:21:58 AM

Latest Report: Aug 27, 2016 at 10:00 AM


Visibility: 31 mi

Pressure: 30.05 "Hg

Humidity: 76%

Dew Point: 52 °F

Location of DundalkLocation

Past Weather in Dundalk — Graph

°F

Dundalk Temperature Yesterday

Maximum temperature yesterday: 64 °F (at 2:00 PM)
Minimum temperature yesterday: 49 °F (at 11:00 PM)
Average temperature yesterday: 56 °F

High & Low Weather Summary for the Past Weeks

 TemperatureHumidityPressure
High67 °F (Aug 15, 3:00 PM)100% (Aug 15, 7:00 AM)30.30 "Hg (Aug 15, 7:00 AM)
Low47 °F (Aug 15, 6:00 AM)58% (Aug 24, 4:00 PM)29.12 "Hg (Aug 20, 8:00 AM)
Average58 °F87%29.95 "Hg
* Reported Aug 12 10:00 AM — Aug 27 10:00 AM, Dundalk, Weather by CustomWeather, © 2016

Note: Actual official high and low records may vary slightly from our data, if they occured in-between our weather recording intervals... More about our weather records

Advertising

Dundalk Weather History for the Previous 24 Hours

Scroll right to see more
 ConditionsComfort  
Time TempWeatherWind HumidityBarometerVisibility
10:00 AM
Sat, Aug 27
60 °FCool.3 mph76%30.05 "Hg31 mi
9:00 AM56 °FCool.5 mph84%30.06 "Hg25 mi
8:00 AM53 °FCool.3 mph86%30.06 "Hg25 mi
7:00 AM52 °FCool.3 mph84%30.04 "Hg31 mi
6:00 AM49 °FCool.5 mph94%30.06 "Hg22 mi
5:00 AM53 °FCool.3 mph88%30.06 "Hg28 mi
4:00 AM51 °FCool.3 mph91%30.06 "Hg25 mi
3:00 AM51 °FCool.5 mph89%30.07 "Hg22 mi
2:00 AM52 °FCool.5 mph89%30.06 "Hg25 mi
1:00 AM51 °FCool.3 mph89%30.06 "Hg25 mi
12:00 AM52 °FCool.6 mph89%30.06 "Hg28 mi
11:00 PM
Fri, Aug 26
49 °FCool.6 mph90%30.06 "Hg25 mi
10:00 PM54 °FCool.5 mph83%30.06 "Hg28 mi
9:00 PM56 °FCool.3 mph78%30.04 "Hg25 mi
8:00 PM59 °FCool.7 mph74%30.02 "Hg22 mi
7:00 PM62 °FCool.5 mph66%30.01 "Hg22 mi
6:00 PM63 °FMild.8 mph66%29.98 "Hg28 mi
5:00 PM62 °FCool.12 mph67%29.98 "Hg28 mi
4:00 PM63 °FMild.12 mph69%29.97 "Hg28 mi
3:00 PM64 °FMild.14 mph64%29.97 "Hg14 mi
2:00 PM64 °FMild.8 mph67%29.96 "Hg16 mi
1:00 PM61 °FCool.7 mph71%29.96 "Hg28 mi
12:00 PM61 °FCool.10 mph74%29.94 "Hg25 mi
11:00 AM57 °FCool.12 mph81%29.94 "Hg19 mi
Weather by CustomWeather, © 2016

See weather overviewHow to use our weather pages